Weather History for KICL - November, 2012

Change the Weather History Date:

Saturday, November 10, 2012

  Actual Average (KFNB) Record (KFNB)
Temperature  
Mean Temperature 66 °F -  
Max Temperature 73 °F 53 °F - (-1)
Min Temperature 57 °F 32 °F - (-1)
Cooling Degree Days 2    
Growing Degree Days 16 (Base 50)    
Moisture  
Dew Point 52 °F    
Average Humidity 62    
Maximum Humidity 88    
Minimum Humidity 49    
Precipitation  
Precipitation 0.08 in - - ()
Sea Level Pressure  
Sea Level Pressure 29.64 in    
Wind  
Wind Speed 16 mph (South)    
Max Wind Speed 29 mph    
Max Gust Speed 37 mph    
Visibility 10 miles    
Events Rain    
Averages and records for this station are not official NWS values.
T = Trace of Precipitation, MM = Missing Value Source: NWS Daily Summary

Daily Weather History Graph

Daily Weather History Graph

Search for Another Location

Airport or City:

Trip Planner

Search our weather history database for the weather conditions in past years. The results will help you decide how hot, cold, wet, or windy it might be!

Date:

Astronomy

Nov. 10, 2012 Rise Set
Actual Time 7:01 AM CST 5:06 PM CST
Civil Twilight 6:32 AM CST 5:35 PM CST
Nautical Twilight 5:59 AM CST 6:07 PM CST
Astronomical Twilight 5:27 AM CST 6:40 PM CST
Moon 3:06 AM CST (11/10) 2:54 PM CST (11/10)
Length of Visible Light 11h 02m
Length of Day
10h 04m
Waning Crescent, 14% of the Moon is Illuminated
Nov 10
Waning Crescent
Nov 13
New
Nov 20
First Quarter
Nov 28
Full
Dec 6
Last Quarter

Hourly Weather History & Observations

Time (CST) Temp. Dew Point Humidity Pressure Visibility Wind Dir Wind Speed Gust Speed Precip Events Conditions
12:15 AM 62.6 °F 53.6 °F 72% 29.70 in 10.0 mi SSE 10.4 mph - N/A   Clear
12:35 AM 62.6 °F 55.4 °F 77% 29.70 in 10.0 mi SSE 11.5 mph - N/A   Clear
12:55 AM 62.6 °F 53.6 °F 72% 29.70 in 10.0 mi South 11.5 mph - N/A   Clear
1:15 AM 60.8 °F 53.6 °F 77% 29.69 in 10.0 mi South 11.5 mph - N/A   Clear
1:35 AM 60.8 °F 53.6 °F 77% 29.69 in 10.0 mi South 10.4 mph - N/A   Clear
1:55 AM 60.8 °F 53.6 °F 77% 29.68 in 10.0 mi South 10.4 mph - N/A   Clear
2:15 AM 60.8 °F 53.6 °F 77% 29.68 in 10.0 mi South 11.5 mph - N/A   Clear
2:55 AM 60.8 °F 53.6 °F 77% 29.67 in 10.0 mi South 11.5 mph - N/A   Clear
3:15 AM 62.6 °F 53.6 °F 72% 29.67 in 10.0 mi South 15.0 mph - N/A   Clear
3:35 AM 62.6 °F 53.6 °F 72% 29.66 in 10.0 mi South 13.8 mph 23.0 mph N/A   Clear
3:55 AM 62.6 °F 53.6 °F 72% 29.66 in 10.0 mi South 12.7 mph 19.6 mph N/A   Clear
4:15 AM 62.6 °F 53.6 °F 72% 29.66 in 10.0 mi South 15.0 mph - N/A   Clear
4:35 AM 62.6 °F 53.6 °F 72% 29.66 in 10.0 mi South 13.8 mph 19.6 mph N/A   Clear
4:55 AM 62.6 °F 53.6 °F 72% 29.65 in 10.0 mi South 13.8 mph - N/A   Clear
5:15 AM 62.6 °F 53.6 °F 72% 29.66 in 10.0 mi South 15.0 mph 19.6 mph N/A   Clear
5:35 AM 62.6 °F 53.6 °F 72% 29.66 in 10.0 mi South 16.1 mph 21.9 mph N/A   Clear
5:55 AM 64.4 °F 51.8 °F 64% 29.66 in 10.0 mi South 15.0 mph 25.3 mph N/A   Clear
6:15 AM 62.6 °F 53.6 °F 72% 29.65 in 10.0 mi South 15.0 mph - N/A   Clear
6:35 AM 62.6 °F 51.8 °F 68% 29.65 in 10.0 mi South 16.1 mph 23.0 mph N/A   Clear
6:55 AM 62.6 °F 51.8 °F 68% 29.66 in 10.0 mi South 17.3 mph 21.9 mph N/A   Clear
7:15 AM 62.6 °F 51.8 °F 68% 29.67 in 10.0 mi South 16.1 mph 23.0 mph N/A   Clear
7:35 AM 62.6 °F 51.8 °F 68% 29.67 in 10.0 mi South 16.1 mph 19.6 mph N/A   Clear
7:55 AM 64.4 °F 51.8 °F 64% 29.67 in 10.0 mi South 19.6 mph 24.2 mph N/A   Clear
8:15 AM 64.4 °F 51.8 °F 64% 29.68 in 10.0 mi South 20.7 mph 26.5 mph N/A   Clear
8:35 AM 66.2 °F 51.8 °F 60% 29.68 in 10.0 mi South 19.6 mph 28.8 mph N/A   Clear
8:55 AM 68.0 °F 53.6 °F 60% 29.68 in 10.0 mi South 24.2 mph 32.2 mph N/A   Clear
9:15 AM 69.8 °F 51.8 °F 53% 29.67 in 10.0 mi South 21.9 mph 32.2 mph N/A   Clear
9:35 AM 69.8 °F 51.8 °F 53% 29.68 in 10.0 mi SSW 21.9 mph 31.1 mph N/A   Clear
9:55 AM 69.8 °F 51.8 °F 53% 29.68 in 10.0 mi SSW 21.9 mph 33.4 mph N/A   Clear
10:15 AM 71.6 °F 51.8 °F 50% 29.67 in 10.0 mi South 26.5 mph 32.2 mph N/A   Clear
10:35 AM 71.6 °F 51.8 °F 50% 29.67 in 10.0 mi SSW 23.0 mph 32.2 mph N/A   Clear
10:55 AM 71.6 °F 51.8 °F 50% 29.67 in 10.0 mi SSW 23.0 mph 33.4 mph N/A   Clear
11:15 AM 71.6 °F 51.8 °F 50% 29.68 in 10.0 mi SSW 20.7 mph 29.9 mph N/A   Clear
11:35 AM 69.8 °F 51.8 °F 53% 29.67 in 10.0 mi South 21.9 mph 29.9 mph N/A   Scattered Clouds
11:55 AM 69.8 °F 51.8 °F 53% 29.67 in 10.0 mi South 21.9 mph 28.8 mph N/A   Scattered Clouds
12:15 PM 69.8 °F 53.6 °F 56% 29.65 in 10.0 mi South 18.4 mph 25.3 mph N/A Rain Light Rain
12:35 PM 71.6 °F 51.8 °F 50% 29.65 in 10.0 mi South 21.9 mph 31.1 mph N/A   Clear
12:55 PM 68.0 °F 53.6 °F 60% 29.61 in 10.0 mi South 21.9 mph 29.9 mph N/A Rain Light Rain
1:15 PM 69.8 °F 51.8 °F 53% 29.61 in 10.0 mi South 18.4 mph 28.8 mph N/A   Clear
1:35 PM 71.6 °F 53.6 °F 53% 29.62 in 10.0 mi South 23.0 mph 31.1 mph N/A Rain Light Rain
1:55 PM 71.6 °F 53.6 °F 53% 29.61 in 10.0 mi South 23.0 mph 35.7 mph N/A   Clear
2:15 PM 73.4 °F 53.6 °F 50% 29.60 in 10.0 mi South 20.7 mph 35.7 mph N/A   Clear
2:35 PM 73.4 °F 53.6 °F 50% 29.60 in 10.0 mi South 24.2 mph 33.4 mph N/A   Clear
2:55 PM 73.4 °F 53.6 °F 50% 29.60 in 10.0 mi South 28.8 mph 35.7 mph N/A   Clear
3:15 PM 73.4 °F 53.6 °F 50% 29.60 in 10.0 mi South 18.4 mph 29.9 mph N/A   Scattered Clouds
3:35 PM 71.6 °F 53.6 °F 53% 29.61 in 10.0 mi South 23.0 mph 31.1 mph N/A   Mostly Cloudy
3:55 PM 69.8 °F 53.6 °F 56% 29.61 in 10.0 mi South 20.7 mph 34.5 mph N/A   Mostly Cloudy
4:15 PM 69.8 °F 53.6 °F 56% 29.61 in 10.0 mi South 25.3 mph 32.2 mph N/A   Mostly Cloudy
4:35 PM 69.8 °F 53.6 °F 56% 29.58 in 10.0 mi SSE 16.1 mph 19.6 mph N/A Rain Light Rain
4:55 PM 69.8 °F 53.6 °F 56% 29.60 in 10.0 mi South 17.3 mph 29.9 mph N/A   Clear
5:15 PM 69.8 °F 53.6 °F 56% 29.60 in 10.0 mi South 18.4 mph 31.1 mph N/A   Scattered Clouds
5:35 PM 68.0 °F 53.6 °F 60% 29.60 in 10.0 mi South 18.4 mph 26.5 mph N/A   Scattered Clouds
5:55 PM 68.0 °F 53.6 °F 60% 29.62 in 10.0 mi South 18.4 mph 24.2 mph N/A   Scattered Clouds
6:15 PM 66.2 °F 53.6 °F 64% 29.61 in 10.0 mi South 17.3 mph 21.9 mph N/A   Scattered Clouds
6:35 PM 66.2 °F 51.8 °F 60% 29.61 in 10.0 mi South 16.1 mph 21.9 mph N/A   Scattered Clouds
6:55 PM 66.2 °F 51.8 °F 60% 29.60 in 10.0 mi South 18.4 mph 23.0 mph N/A   Clear
7:15 PM 66.2 °F 51.8 °F 60% 29.59 in 10.0 mi South 20.7 mph 24.2 mph N/A   Clear
7:35 PM 66.2 °F 50.0 °F 56% 29.58 in 10.0 mi South 18.4 mph 27.6 mph N/A   Clear
7:55 PM 66.2 °F 48.2 °F 52% 29.58 in 10.0 mi South 24.2 mph 29.9 mph N/A   Clear
8:15 PM 66.2 °F 48.2 °F 52% 29.57 in 10.0 mi South 24.2 mph 34.5 mph N/A   Clear
8:35 PM 66.2 °F 48.2 °F 52% 29.56 in 10.0 mi South 23.0 mph 32.2 mph N/A   Clear
8:55 PM 66.2 °F 48.2 °F 52% 29.58 in 10.0 mi South 23.0 mph 33.4 mph N/A   Clear
9:15 PM 66.2 °F 48.2 °F 52% 29.59 in 10.0 mi South 21.9 mph 35.7 mph N/A   Clear
9:35 PM 66.2 °F 48.2 °F 52% 29.60 in 10.0 mi South 25.3 mph 33.4 mph N/A   Clear
10:35 PM 68.0 °F 48.2 °F 49% 29.63 in 10.0 mi SSW 23.0 mph 29.9 mph N/A   Overcast
10:55 PM 64.4 °F 53.6 °F 68% 29.64 in 10.0 mi SSW 21.9 mph 36.8 mph N/A   Heavy Drizzle
11:15 PM 62.6 °F 53.6 °F 72% 29.67 in 10.0 mi SSW 24.2 mph 34.5 mph 0.02 in Rain Rain
11:35 PM 60.8 °F 53.6 °F 77% 29.68 in 10.0 mi SSW 20.7 mph 33.4 mph 0.06 in Rain Rain
11:55 PM 57.2 °F 53.6 °F 88% 29.68 in 10.0 mi SSW 15.0 mph - 0.08 in Rain Light Rain